Liberia, Costa Rica

12:02 PM CST on September 22, 2017 (GMT -0600)
Daniel Oduber Quiros International

Weather History for MRLB - March, 2013

Change the Weather History Date:

Wednesday, March 6, 2013

  Actual Average Record
Temperature  
Mean Temperature 82 °F -  
Max Temperature 95 °F 92 °F 98 °F (1998)
Min Temperature 69 °F 75 °F 62 °F (2011)
Cooling Degree Days 17    
Growing Degree Days 32 (Base 50)    
Moisture  
Dew Point 65 °F    
Average Humidity 52    
Maximum Humidity 84    
Minimum Humidity 24    
Precipitation  
Precipitation 0.00 in - - ()
Sea Level Pressure  
Sea Level Pressure 29.86 in    
Wind  
Wind Speed 11 mph ()    
Max Wind Speed 25 mph    
Max Gust Speed 33 mph    
Visibility 9.4 miles    
Events      
Averages and records for this station are not official NWS values.
T = Trace of Precipitation, MM = Missing Value Source: Averaged Metar Reports

Daily Weather History Graph

Daily Weather History Graph

Search for Another Location

Airport or City:

Trip Planner

Search our weather history database for the weather conditions in past years. The results will help you decide how hot, cold, wet, or windy it might be!

Date:

Astronomy

Mar. 06, 2013 Rise Set
Actual Time 5:54 AM CST 5:52 PM CST
Civil Twilight 5:33 AM CST 6:13 PM CST
Nautical Twilight 5:08 AM CST 6:38 PM CST
Astronomical Twilight 4:44 AM CST 7:02 PM CST
Moon 1:19 AM CST (3/6) 1:15 PM CST (3/6)
Length of Visible Light 12h 40m
Length of Day
11h 58m
Waning Crescent, 29% of the Moon is Illuminated
Mar 6
Waning Crescent
Mar 11
New
Mar 19
First Quarter
Mar 27
Full
Apr 2
Last Quarter

Hourly Weather History & Observations

Time (CST) Temp. Heat Index Dew Point Humidity Pressure Visibility Wind Dir Wind Speed Gust Speed Precip Events Conditions
6:00 AM 69 °F - 65 °F 84% 29.88 in 12 mi NE 4.6 mph - -   Clear
6:00 AM 69.8 °F - 64.4 °F 83% 29.87 in - NE 4.6 mph - N/A   Clear
7:00 AM 75.2 °F - 66.2 °F 73% 29.90 in - SW 5.8 mph - N/A   Clear
8:00 AM 80.6 °F 82.7 °F 66.2 °F 61% 29.91 in - SW 5.8 mph - N/A   Clear
9:00 AM 85 °F - 71 °F 55% 29.93 in 12 mi West 4.6 mph - -   Clear
9:00 AM 86.0 °F 87.3 °F 64.4 °F 48% 29.91 in - West 4.6 mph - N/A   Clear
10:00 AM 89.6 °F 91.1 °F 64.4 °F 43% 29.90 in - NNW 4.6 mph - N/A   Clear
11:00 AM 95.0 °F 96.0 °F 62.6 °F 34% - - NE 17.3 mph - N/A   Clear
12:00 PM 95 °F - 62 °F 24% 29.88 in 12 mi East 17.3 mph - -   Scattered Clouds
12:00 PM 95.0 °F 96.0 °F 62.6 °F 34% 29.86 in 6.2 mi East 17.3 mph - N/A   Scattered Clouds
1:00 PM 93.2 °F 94.1 °F 62.6 °F 36% 29.84 in 6.2 mi ENE 18.4 mph - N/A   Scattered Clouds
2:00 PM 93.2 °F 94.9 °F 64.4 °F 38% 29.81 in 6.2 mi ENE 23.0 mph - N/A   Partly Cloudy
3:00 PM 91 °F - 64 °F 31% 29.82 in 12 mi ENE 20.7 mph - -   Clear
3:00 PM 91.4 °F 93.2 °F 64.4 °F 41% 29.80 in 6.2 mi ENE 20.7 mph - N/A   Scattered Clouds
4:00 PM 91.4 °F 93.2 °F 64.4 °F 41% 29.79 in - East 20.7 mph - N/A   Clear
5:00 PM 87.8 °F 90.4 °F 66.2 °F 49% 29.80 in - East 18.4 mph - N/A   Clear
6:00 PM 85 °F - 67 °F 45% 29.83 in 12 mi East 19.6 mph - -   Partly Cloudy
6:00 PM 84.2 °F 86.6 °F 66.2 °F 55% 29.82 in - East 18.4 mph - N/A   Clear
7:00 PM 84.2 °F 86.6 °F 66.2 °F 55% 29.85 in - NE 20.7 mph - N/A   Clear
8:00 PM 84.2 °F 87.3 °F 68.0 °F 58% 29.86 in - ENE 18.4 mph - N/A   Clear
9:00 PM 80.6 °F 83.2 °F 68.0 °F 65% 29.87 in - ENE 25.3 mph - N/A   Clear
10:00 PM 80.6 °F 83.2 °F 68.0 °F 65% 29.89 in - East 19.6 mph 31.1 mph N/A   Clear
11:00 PM 78.8 °F - 68.0 °F 69% 29.90 in - ENE 19.6 mph 33.4 mph N/A   Clear